Temperature
15 15 15 15 15 15 15 15 15 15 15 15 15 15 15 15 15 14 14 15 15 15 15 15 15 15 15 15 15 15 15 15 15 15 15 15 15 15 15 15 15 15 15
15 15 15 15 15 15 15 15 15 15 15 15 15 15 14 14 14 14 14 14 14 15 15 15 15 15 15 15 15 15 15 15 15 15 15 15 15 15 15 15 15 15 15
15 15 15 15 15 15 15 15 15 15 14 14 14 14 14 14 14 14 14 14 14 14 14 14 14 14 15 15 15 15 15 15 15 15 15 15 15 15 15 15 14 14 15
15 15 15 15 15 15 15 15 14 14 14 14 14 14 14 14 14 14 14 14 14 14 14 14 14 14 14 14 14 14 14 14 14 14 14 14 14 14 14 14 14 14 14
15 15 15 15 15 15 15 14 14 14 14 14 14 14 14 14 14 14 14 14 14 14 14 14 14 14 14 14 14 14 14 14 14 14 14 14 14 14 14 14 14 14 14
15 15 15 15 15 15 15 14 14 14 14 14 14 14 14 14 14 14 14 14 14 13 13 13 13 13 14 14 14 14 13 13 13 13 13 13 13 13 13 13 13 13 13
15 15 15 15 15 15 15 14 14 14 14 14 14 14 14 14 14 13 13 13 13 13 13 13 13 13 13 14 14 13 13 13 13 13 13 13 13 13 13 13 13 13 13
15 15 15 15 15 15 15 14 14 14 14 14 14 14 14 14 13 13 13 13 13 13 13 13 13 13 13 13 13 13 13 13 13 13 13 13 13 13 12 12 12 12 12
15 15 15 15 15 15 14 14 14 14 14 14 14 14 15 15 14 13 13 13 13 13 13 13 13 13 13 12 12 13 13 13 12 12 12 12 12 12 12 12 12 12 12
15 15 15 15 15 14 15 14 14 14 14 14 14 14 14 14 14 14 13 13 13 13 13 13 13 12 12 12 12 12 12 12 12 12 12 12 12 12 12 12 12 12 12
15 15 14 14 14 14 14 14 14 14 14 14 14 14 14 14 14 14 14 13 13 13 13 13 12 12 12 12 12 12 12 12 12 12 12 12 12 12 12 12 11 11 11
14 14 14 14 14 14 14 14 14 14 14 14 14 14 14 14 14 14 14 13 13 12 12 12 12 12 12 12 12 12 12 12 12 12 12 12 11 11 11 11 11 11 11
14 14 14 14 14 14 14 14 14 14 14 14 14 14 14 14 13 14 14 14 13 12 12 12 12 12 12 12 12 12 12 12 12 12 12 12 12 11 11 11 11 11 10
14 14 14 14 14 14 14 14 14 14 14 14 14 14 14 13 13 13 13 13 13 13 12 12 12 12 12 12 12 12 12 12 12 12 12 12 11 11 11 11 11 10 10
14 14 14 14 14 14 14 14 14 14 14 14 14 14 14 13 13 13 13 13 13 14 13 12 12 12 12 11 11 11 11 11 11 11 11 11 11 11 11 11 10 10 10
14 14 14 14 14 14 14 14 14 14 14 14 14 14 14 13 13 13 13 13 13 13 13 12 12 11 11 11 11 11 11 11 11 11 11 11 11 11 11 10 10 10 10
14 14 14 14 14 14 14 14 14 14 14 14 14 14 14 14 13 13 13 13 13 13 13 12 12 11 11 11 11 11 11 10 11 11 11 11 11 11 10 10 10 10 10
14 14 14 14 14 14 14 14 14 14 13 13 13 13 13 13 13 13 13 13 13 12 12 12 12 11 11 11 11 11 10 10 10 11 11 11 10 10 10 10 10 10 10
14 14 13 14 14 13 13 13 13 13 13 13 13 13 13 13 13 13 13 13 13 12 12 12 12 11 11 11 11 11 10 10 10 10 10 10 10 10 10 10 10 10 9
13 13 13 13 13 13 13 13 13 13 13 13 13 13 13 13 13 13 13 13 12 12 12 12 11 11 11 11 10 10 10 10 10 10 10 10 10 10 10 10 9 9 9
13 13 13 13 13 13 13 13 13 13 13 13 13 13 13 13 13 13 12 12 12 12 12 11 11 11 11 11 10 10 10 10 10 10 9 9 9 9 9 9 9 9 9
13 13 13 13 13 13 13 13 13 13 13 13 13 13 13 13 13 13 13 12 12 12 11 11 11 11 10 10 10 10 10 9 9 9 9 9 9 9 9 9 9 9 9
13 13 13 13 13 13 13 13 13 12 12 12 12 12 12 12 12 12 12 12 12 12 11 11 11 10 10 10 10 10 10 9 9 9 9 9 9 9 9 9 9 9 9
13 13 13 13 13 13 13 13 13 12 12 12 12 12 12 12 12 12 11 11 11 11 11 11 11 10 10 10 10 10 10 9 9 9 9 8 8 8 8 8 9 9 8
13 13 13 13 13 13 13 13 13 12 12 12 12 12 12 12 12 12 11 11 11 11 11 11 11 10 10 10 10 10 9 9 9 9 9 8 8 8 8 8 8 8 8
13 13 13 13 12 12 12 12 12 12 12 12 12 12 12 12 12 11 11 11 10 10 10 10 10 10 10 10 10 9 9 9 9 8 8 8 8 7 7 8 8 8 7
Wind_Speed
4 5 5 5 6 6 6 6 6 8 7 8 8 8 8 8 7 7 8 11 10 10 9 9 9 9 9 8 8 9 9 9 8 8 7 8 8 8 9 9 9 8 8
4 4 5 5 5 5 5 6 7 6 6 7 7 8 8 7 7 7 7 9 11 11 10 10 10 10 10 10 10 10 10 10 10 10 9 8 8 9 9 9 9 8 8
4 3 3 4 4 5 5 5 7 6 6 6 6 7 7 8 8 8 7 7 8 11 12 12 11 11 11 11 11 11 11 11 12 12 11 11 10 10 10 10 10 10 10
3 3 3 3 4 4 4 4 4 5 5 5 5 5 6 7 8 8 8 8 7 8 11 12 12 12 12 12 12 12 12 12 12 13 13 13 12 12 11 11 11 11 11
3 3 3 3 4 4 4 3 4 4 4 5 5 5 5 6 6 7 8 9 8 8 8 11 11 12 12 11 11 11 12 12 13 13 13 13 12 12 11 11 11 11 11
2 2 3 3 3 3 3 3 4 4 4 3 4 5 5 5 5 6 7 7 8 8 8 8 8 9 11 11 11 11 11 12 12 12 13 13 12 12 11 11 11 11 11
1 2 2 3 2 3 3 4 4 4 3 3 3 3 4 5 5 5 5 5 7 7 7 7 7 7 7 10 11 11 11 11 12 12 12 13 13 12 11 11 11 11 11
1 1 2 2 3 2 3 4 3 2 2 1 0 1 1 3 3 3 3 4 5 6 7 7 7 7 6 7 10 11 11 11 11 11 12 12 11 10 9 9 9 9 10
1 1 1 2 3 3 3 3 3 3 2 1 1 1 1 1 1 2 3 3 4 4 5 6 7 7 7 6 7 10 11 11 11 11 10 10 10 10 9 8 8 9 10
1 1 1 2 2 2 3 3 3 2 2 1 1 1 1 0 1 1 2 3 4 4 4 4 5 6 6 7 8 10 10 10 10 10 10 10 10 11 11 10 10 10 10
1 1 1 2 2 2 2 2 2 3 2 2 1 0 0 1 2 1 1 1 2 3 3 4 4 5 5 6 6 9 9 9 9 9 9 9 10 11 11 11 10 9 8
1 1 1 1 2 2 2 2 3 3 3 2 2 2 1 1 1 1 1 1 1 2 2 3 3 3 4 5 7 9 8 8 8 8 8 9 9 10 10 9 9 8 8
1 1 1 1 1 1 1 2 2 2 3 3 3 2 1 1 1 1 1 1 1 1 1 1 2 2 3 3 5 7 7 7 7 7 7 8 8 8 8 8 9 8 8
1 1 1 1 0 1 1 1 2 2 2 2 3 2 2 2 1 2 2 2 2 1 1 1 2 2 2 3 4 4 5 6 6 6 6 7 7 7 8 8 8 8 8
1 1 1 1 1 1 1 1 1 2 2 2 2 3 3 2 2 2 2 3 3 2 1 1 1 1 2 2 3 3 4 6 5 5 5 6 6 6 7 7 7 7 7
2 2 2 1 1 1 1 1 1 1 2 2 1 2 2 2 2 2 3 3 3 3 2 1 1 1 1 2 2 2 3 5 5 4 4 4 4 5 5 6 6 6 6
3 2 2 2 2 2 2 2 2 2 2 2 2 2 2 2 2 2 2 2 2 2 2 2 1 2 2 2 2 2 2 2 3 4 3 3 3 3 3 4 4 4 4
3 3 3 2 2 2 2 2 2 2 2 2 2 2 1 1 2 2 2 2 2 3 3 3 2 2 2 2 2 2 2 1 2 4 3 2 2 2 2 2 2 2 2
4 4 3 3 2 2 2 2 3 2 2 2 2 2 1 2 2 2 3 3 2 2 2 3 3 2 2 3 3 2 3 2 2 3 3 3 2 2 2 1 1 1 1
5 4 4 3 3 3 3 3 3 2 2 2 2 2 2 2 2 2 3 3 3 3 3 3 3 3 3 3 3 3 2 3 2 2 2 3 4 5 4 4 3 3 2
5 5 4 4 4 3 3 3 3 3 2 2 2 1 1 1 3 2 2 3 3 3 4 4 4 4 4 4 4 3 3 3 3 3 3 3 3 3 4 5 6 5 4
5 5 5 5 4 3 2 2 3 4 4 3 2 2 1 1 1 1 1 2 3 4 5 5 4 5 5 4 4 4 4 4 3 2 3 3 2 3 3 3 3 5 5
5 5 5 5 5 4 4 4 4 5 4 4 3 3 2 1 2 2 2 3 2 3 5 5 5 5 5 4 5 5 5 5 4 2 3 4 3 4 3 2 4 6 6
4 4 5 5 4 3 5 5 5 6 4 4 4 3 3 3 2 2 2 2 2 2 3 4 5 5 4 4 5 5 5 5 4 3 3 4 3 4 4 3 5 6 6
4 5 5 5 5 5 5 5 5 4 4 4 4 4 3 3 2 3 3 3 3 2 1 2 3 2 2 3 4 4 4 4 4 4 4 4 4 4 4 4 4 7 7
5 4 4 5 5 5 5 5 6 4 5 4 3 3 3 3 3 4 5 4 4 3 3 3 3 4 4 4 6 6 5 5 4 4 3 4 4 3 3 3 3 4 5
Wind_Direction
75 78 83 81 78 78 82 79 77 75 70 62 60 60 60 56 52 55 57 57 49 47 54 59 59 59 61 61 60 58 54 52 51 51 58 63 64 64 62 63 65 66 68
82 81 84 84 79 77 79 84 84 80 72 68 61 56 53 55 52 50 52 62 60 52 54 59 60 63 64 64 65 63 58 54 51 50 62 73 71 68 68 69 68 67 69
86 89 86 90 91 93 93 90 88 81 79 77 71 64 58 51 50 49 49 51 63 65 61 58 59 64 66 67 67 65 62 57 54 57 66 74 72 71 72 72 71 69 69
82 91 94 93 100 102 100 94 87 82 77 72 68 63 63 59 53 51 53 57 58 61 66 62 60 63 66 66 67 66 65 63 60 61 65 68 68 67 70 70 70 68 67
85 96 99 103 108 111 109 101 92 85 84 80 76 67 61 59 55 55 57 56 59 61 65 71 68 64 64 64 67 66 65 64 62 61 62 63 63 62 65 67 67 65 65
97 109 127 126 125 125 116 112 109 98 91 92 84 75 68 68 62 53 52 55 56 59 61 63 71 71 65 62 64 66 65 64 62 61 60 59 60 61 61 64 67 68 66
115 119 138 139 148 141 134 137 127 121 113 108 107 97 91 75 66 59 53 55 60 59 63 63 63 67 72 67 58 62 62 63 64 63 60 59 57 56 57 60 64 66 66
109 133 155 157 160 152 155 152 153 140 128 164 113 154 133 117 79 63 62 52 55 64 60 60 63 63 61 68 66 59 57 60 62 63 61 59 55 52 55 58 62 65 65
114 179 158 158 168 177 170 176 180 181 176 187 294 313 311 63 86 89 61 61 56 56 60 59 61 59 61 63 69 68 57 58 63 64 61 57 53 50 54 63 74 74 70
130 157 163 174 183 184 185 193 195 199 208 208 198 306 337 41 266 131 108 71 57 55 54 58 57 60 63 69 69 65 65 60 60 61 60 58 56 56 63 71 82 80 73
109 137 160 176 192 196 203 210 212 215 214 232 229 184 119 223 255 234 151 121 89 66 59 56 58 59 61 65 67 71 71 65 60 57 56 56 56 59 64 70 78 77 72
127 117 152 186 197 202 208 216 216 213 226 229 233 229 228 247 243 226 209 189 130 84 76 66 61 61 66 72 70 76 75 71 63 58 54 53 55 59 62 67 73 69 65
156 149 182 216 201 199 206 216 217 213 214 220 223 235 249 265 268 264 224 203 179 160 123 98 80 80 81 84 86 93 83 76 68 61 56 52 54 55 57 59 64 62 60
181 165 196 224 198 198 195 201 220 209 212 211 216 218 220 236 246 248 247 224 216 199 180 137 101 87 95 97 95 112 93 88 78 69 63 60 59 57 58 58 58 57 58
187 186 187 195 180 190 197 199 223 213 215 218 214 214 216 212 230 240 242 245 253 245 219 158 159 103 116 100 116 123 100 95 89 81 75 71 68 67 65 63 61 59 59
198 206 211 193 182 187 193 204 226 238 217 205 212 219 220 218 211 225 233 237 252 259 231 168 177 163 139 132 126 123 102 108 95 92 85 80 77 76 75 72 69 65 63
211 217 219 223 206 204 203 199 219 213 212 205 200 208 221 225 215 215 218 221 230 234 211 199 179 172 180 182 148 155 142 129 105 111 106 98 92 85 82 80 76 71 67
219 223 217 223 224 229 231 216 211 218 222 221 223 222 216 200 217 216 208 215 214 224 213 197 191 191 200 200 191 192 185 167 135 122 133 132 125 116 106 101 95 85 82
218 217 217 220 221 226 229 232 221 217 218 220 225 235 234 225 221 204 207 211 208 205 205 205 199 195 209 204 200 206 209 209 204 158 167 181 189 198 197 196 189 173 151
222 221 221 222 224 232 233 229 223 218 217 218 219 230 250 253 254 235 222 216 206 199 195 201 201 199 204 209 212 214 217 210 224 212 203 206 199 207 215 221 221 215 212
225 222 219 223 224 234 236 234 226 221 222 223 219 226 250 346 351 306 261 226 209 208 206 205 205 207 210 209 217 219 224 232 233 233 235 232 221 229 219 219 223 224 224
224 221 222 223 222 226 185 230 247 228 229 228 225 225 203 180 144 182 289 280 251 227 220 215 219 220 226 224 221 223 225 238 243 229 245 247 235 244 243 237 204 209 220
215 218 223 225 225 208 173 196 234 243 238 234 230 228 226 212 194 207 183 189 217 250 254 241 233 236 237 228 221 226 231 239 249 236 249 254 240 247 247 226 199 214 223
215 219 224 225 225 206 178 194 218 232 235 233 232 230 224 220 216 229 219 224 234 226 233 239 242 249 251 244 229 234 239 238 246 233 241 256 255 257 254 231 195 215 227
223 222 222 222 218 208 183 191 215 226 231 228 228 231 234 231 189 214 223 229 235 237 222 236 271 284 306 273 243 226 221 224 238 230 220 245 255 264 258 240 212 206 217
223 222 222 227 225 221 184 191 217 223 228 228 223 223 225 237 199 212 225 228 233 240 235 210 214 223 229 223 219 222 223 229 242 241 222 230 242 247 257 240 231 223 223
Height
1556 1556 1556 1555 1555 1555 1554 1554 1554 1554 1554 1554 1553 1553 1553 1552 1552 1551 1550 1549 1548 1547 1547 1546 1546 1545 1545 1544 1543 1542 1541 1540 1539 1537 1535 1536 1536 1537 1537 1536 1536 1536 1536
1558 1557 1557 1557 1556 1556 1556 1556 1556 1555 1555 1554 1554 1554 1553 1553 1553 1552 1551 1550 1549 1548 1547 1547 1546 1546 1545 1544 1543 1543 1541 1540 1537 1533 1531 1533 1535 1536 1536 1536 1536 1536 1536
1559 1559 1559 1558 1558 1558 1558 1557 1557 1557 1557 1556 1556 1555 1555 1554 1553 1553 1552 1551 1550 1549 1548 1548 1547 1547 1546 1545 1544 1543 1542 1540 1537 1533 1531 1532 1535 1536 1536 1536 1536 1536 1536
1560 1560 1560 1559 1559 1559 1559 1559 1559 1558 1558 1558 1558 1557 1556 1555 1555 1554 1553 1552 1551 1551 1550 1548 1548 1548 1547 1546 1546 1545 1543 1542 1539 1536 1535 1535 1536 1537 1537 1537 1536 1536 1537
1561 1561 1560 1560 1560 1560 1560 1560 1560 1560 1560 1559 1559 1558 1558 1557 1556 1555 1555 1554 1553 1552 1551 1550 1549 1549 1548 1548 1547 1546 1545 1543 1542 1540 1539 1538 1538 1538 1538 1537 1537 1537 1537
1561 1561 1561 1561 1561 1561 1561 1561 1561 1561 1561 1561 1561 1560 1560 1559 1558 1557 1556 1555 1554 1554 1553 1552 1551 1550 1550 1549 1548 1547 1546 1545 1544 1542 1541 1540 1539 1539 1538 1538 1538 1537 1538
1561 1561 1561 1561 1561 1562 1562 1562 1562 1562 1562 1562 1562 1562 1561 1560 1559 1558 1557 1556 1555 1554 1554 1553 1553 1552 1551 1550 1549 1549 1548 1546 1545 1544 1543 1541 1540 1539 1539 1538 1538 1538 1538
1561 1561 1562 1562 1561 1562 1562 1562 1562 1563 1562 1562 1563 1562 1562 1563 1561 1560 1558 1557 1557 1556 1555 1555 1554 1553 1553 1552 1551 1550 1549 1548 1547 1546 1544 1543 1541 1540 1538 1537 1537 1538 1538
1561 1561 1561 1561 1562 1562 1562 1562 1562 1562 1563 1562 1562 1563 1562 1562 1562 1561 1560 1559 1558 1557 1556 1556 1555 1554 1554 1553 1552 1551 1550 1549 1548 1547 1545 1544 1541 1538 1535 1533 1535 1537 1538
1561 1561 1561 1561 1561 1562 1562 1562 1562 1562 1562 1562 1562 1561 1562 1562 1562 1562 1561 1560 1559 1558 1557 1557 1556 1555 1554 1554 1553 1552 1551 1550 1549 1547 1546 1544 1542 1538 1534 1532 1534 1537 1538
1560 1560 1560 1561 1561 1561 1561 1561 1561 1562 1562 1562 1562 1561 1561 1561 1561 1561 1561 1561 1560 1559 1558 1557 1557 1556 1555 1554 1553 1553 1552 1551 1550 1548 1546 1545 1543 1540 1537 1536 1537 1538 1539
1559 1559 1559 1560 1560 1560 1560 1560 1560 1561 1561 1561 1561 1561 1561 1560 1561 1560 1560 1560 1560 1559 1558 1557 1557 1556 1556 1555 1554 1553 1552 1551 1550 1549 1547 1545 1544 1542 1541 1540 1540 1539 1539
1559 1559 1559 1559 1559 1559 1559 1559 1559 1560 1560 1559 1559 1560 1560 1560 1559 1560 1560 1560 1559 1559 1558 1558 1557 1556 1556 1555 1554 1553 1553 1552 1550 1549 1548 1546 1545 1544 1542 1542 1541 1540 1540
1558 1558 1558 1558 1558 1558 1558 1558 1558 1558 1559 1559 1558 1558 1558 1558 1558 1558 1559 1559 1559 1559 1559 1559 1557 1557 1556 1555 1554 1553 1552 1551 1550 1549 1548 1547 1546 1545 1543 1542 1541 1541 1540
1557 1557 1557 1557 1557 1557 1557 1557 1557 1557 1557 1557 1557 1557 1557 1556 1556 1557 1557 1558 1559 1558 1558 1558 1557 1556 1556 1555 1554 1554 1553 1551 1550 1549 1548 1547 1546 1545 1544 1543 1542 1541 1540
1556 1556 1556 1556 1556 1556 1556 1556 1556 1556 1556 1556 1556 1556 1555 1555 1555 1555 1555 1556 1556 1557 1557 1556 1556 1555 1555 1554 1553 1553 1552 1551 1550 1549 1548 1547 1546 1545 1544 1543 1542 1541 1540
1554 1554 1554 1555 1555 1554 1554 1554 1554 1554 1555 1555 1555 1554 1554 1553 1553 1553 1553 1554 1554 1555 1555 1554 1554 1554 1553 1553 1552 1552 1551 1550 1549 1548 1547 1546 1545 1544 1543 1543 1542 1541 1539
1553 1553 1553 1553 1553 1553 1553 1553 1553 1553 1553 1553 1553 1553 1552 1552 1551 1551 1551 1552 1552 1552 1553 1552 1552 1552 1552 1551 1551 1550 1550 1549 1548 1547 1546 1545 1544 1543 1542 1542 1541 1540 1539
1551 1551 1551 1551 1551 1551 1551 1551 1551 1551 1551 1551 1551 1551 1551 1550 1549 1549 1549 1550 1550 1550 1550 1550 1550 1550 1549 1549 1549 1549 1548 1547 1547 1546 1545 1544 1543 1542 1541 1540 1539 1538 1537
1548 1548 1549 1549 1549 1549 1549 1549 1549 1549 1549 1549 1549 1549 1549 1548 1548 1547 1547 1547 1548 1548 1548 1548 1548 1547 1547 1547 1547 1547 1546 1546 1545 1544 1543 1542 1541 1540 1539 1538 1537 1536 1535
1545 1546 1546 1546 1546 1547 1547 1547 1547 1547 1548 1547 1547 1547 1546 1546 1545 1545 1545 1545 1545 1545 1545 1545 1545 1545 1545 1544 1544 1544 1544 1544 1543 1542 1541 1540 1539 1538 1537 1536 1535 1534 1533
1542 1543 1543 1543 1543 1544 1544 1544 1545 1545 1545 1545 1545 1545 1544 1543 1543 1543 1542 1542 1543 1543 1543 1542 1542 1542 1542 1542 1541 1541 1541 1541 1541 1540 1539 1538 1537 1536 1535 1534 1533 1532 1531
1539 1540 1540 1541 1541 1541 1541 1542 1542 1542 1543 1542 1542 1542 1542 1541 1540 1540 1540 1539 1539 1539 1539 1540 1539 1539 1539 1539 1539 1538 1538 1538 1538 1537 1536 1535 1534 1533 1532 1531 1530 1529 1528
1536 1537 1537 1538 1538 1538 1538 1539 1539 1539 1540 1539 1539 1539 1539 1538 1538 1537 1537 1536 1536 1536 1536 1535 1536 1536 1536 1535 1535 1535 1535 1534 1534 1533 1533 1532 1531 1530 1529 1528 1526 1525 1525
1533 1534 1534 1534 1534 1535 1535 1535 1536 1536 1536 1536 1536 1536 1535 1535 1535 1534 1534 1534 1533 1533 1532 1532 1532 1532 1531 1531 1531 1531 1531 1531 1530 1530 1529 1528 1527 1526 1525 1524 1523 1521 1521
1530 1530 1531 1531 1531 1531 1532 1532 1533 1533 1533 1533 1532 1532 1532 1532 1531 1531 1531 1530 1530 1530 1529 1529 1528 1528 1527 1527 1527 1527 1527 1527 1526 1526 1525 1524 1523 1523 1521 1520 1519 1518 1517